Regional Weather Roundup
Issued by NWS

Home | Current Version | Previous Version | Graphics & Text | Print | Product List | Glossary On
Versions: 1 2 3 4 5 6 7 8 9 10 11 12 13 14 15 16 17 18 19 20 21 22 23 24 25 26 27 28 29 30 31 32 33 34 35 36 37 38 39 40 41 42 43 44 45 46 47 48 49 50
000
ASUS43 KMPX 070601
RWRMN
WEATHER ROUNDUP FOR MINNESOTA
NATIONAL WEATHER SERVICE TWIN CITIES/CHANHASSEN MN
1200 AM CST SUN FEB 07 2016


NOTE: "FAIR" INDICATES FEW OR NO CLOUDS BELOW 12,000 FEET WITH NO
SIGNIFICANT WEATHER AND/OR OBSTRUCTIONS TO VISIBILITY. N/A MEANS
CURRENT SKY AND/OR WEATHER CONDITIONS ARE NOT AVAILABLE.

MNZ060>063-068>070-070700-
   Twin Cities Metro

CITY           SKY/WX    TMP DP  RH WIND       PRES   REMARKS
TWIN CITIES    CLOUDY    35  27  72 SW8       29.73R WCI  29
6HR MIN TEMP:  34; 6HR MAX TEMP:  36; 6HR PCP: TRACE;

ST PAUL        CLOUDY    35  28  75 S3        29.73F
CRYSTAL        CLOUDY    35  28  75 SW7       29.71S WCI  29
BLAINE         CLOUDY    36  30  80 SW9G16    29.70F
LAKEVILLE      CLOUDY    32  28  86 S15G24    29.69F WCI  22
EDEN PRAIRIE   MOCLDY    35  27  72 SW13      29.71F WCI  26
6HR MIN TEMP:  35; 6HR MAX TEMP:  36; 6HR PCP: TRACE;

SOUTH ST PAUL  CLOUDY    35  28  76 S5        29.71F WCI  31
LAKE ELMO      MOCLDY    34  30  86 S10       29.72F WCI  26
$$
MNZ001>005-007-008-013>017-022>024-027-028-070700-
   Northwest Minnesota

CITY           SKY/WX    TMP DP  RH WIND       PRES   REMARKS
BEMIDJI        CLOUDY    35  32  90 SW7       29.49F WCI  29
HALLOCK        CLOUDY    36  32  87 W10       29.40S
ROSEAU         PTCLDY    37  32  81 SW10      29.39F
WARROAD        CLOUDY    37  34  87 SW12      29.39F
THIEF RVR FALL CLOUDY    36  30  80 SW13      29.46F
CROOKSTON      CLOUDY    37  32  81 W12       29.49S
FOSSTON        CLOUDY    34  32  93 SW12      29.50F WCI  25
DETROIT LAKES  CLOUDY    37  32  81 W14G21    29.56S
MOORHEAD       CLOUDY    37  32  81 W21G28    29.57F
PARK RAPIDS    CLOUDY    36  32  85 SW10      29.53F
MAHNOMEN       CLOUDY    34  32  92 SW17      29.52F WCI  24
$$
MNZ006-009>011-018-025>026-070700-
   North Central Minnesota

CITY           SKY/WX    TMP DP  RH WIND       PRES   REMARKS
BAUDETTE       CLOUDY    36  30  79 S10       29.40F
FLAG ISLAND    CLOUDY    32  28  86 SE7       29.37F WCI  26
INTL FALLS     CLOUDY    32  30  92 VRB5      29.45F WCI  27
6HR MIN TEMP:  30; 6HR MAX TEMP:  33; 6HR PCP:  0.04;

WASKISH        DRIZZLE   37  34  87 SW9       29.45F
LONGVILLE      PTCLDY    34  32  93 S6        29.55F WCI  29
GRAND RAPIDS   CLOUDY    34  30  86 S9        29.55F WCI  26
CRANE LAKE     CLOUDY    30  28  93 S6        29.53F WCI  24
ORR            MIX PCPN  30  28  93 S6        29.49F WCI  24
COOK           MIX PCPN  30  30 100 S6        29.53F WCI  24
WALKER         FAIR      35  32  90 SW8       29.52F WCI  28
$$
MNZ012-019>021-037-070700-
   Northeast Minnesota

CITY           SKY/WX    TMP DP  RH WIND       PRES   REMARKS
DULUTH         LGT SNOW  31  28  89 SW13      29.59F FOG     WCI  21
6HR MIN TEMP:  30; 6HR MAX TEMP:  32; 6HR PCP:  0.05;

ELY            LGT SNOW  30  28  93 S6        29.54F WCI  24
HIBBING        CLOUDY    30  29  96 S5        29.55S WCI  25
EVELETH        CLOUDY    32  32 100 S7        29.56F WCI  26
DULUTH HARBOR  MIX PCPN  34  30  86 SW13      29.64F WCI  25
TWO HARBORS    LGT SNOW  34  28  80 SW6       29.60F WCI  29
SILVER BAY     LGT SNOW  32  30  93 S6        29.59F WCI  26
GRAND MARAIS     N/A     33  31  92 S14       29.65F WCI  23
G MARAIS ARPRT MIX PCPN  27  25  93 S5        29.60F WCI  21
$$
MNZ029>031-032-039>041-046>048-054>057-064-070700-
   West Central Minnesota

CITY           SKY/WX    TMP DP  RH WIND       PRES   REMARKS
FERGUS FALLS   PTCLDY    36  36 100 W17       29.63S
WHEATON        CLEAR     39  32  75 SW12      29.66S
MORRIS         PTCLDY    36  30  80 SW9       29.64S
ALEXANDRIA     CLOUDY    36  32  85 S12       29.62F
ELBOW LAKE     FAIR      34  32  93 SW13      29.62S FOG     WCI  25
WADENA         PTCLDY    32  30  93 S7        29.57F WCI  26
GLENWOOD       MIX PCPN  36  34  93 S8        29.64F
APPLETON       CLEAR     37  30  75 SW9       29.67F
BENSON         CLOUDY    34  30  86 SW6       29.67F WCI  29
ORTONVILLE     CLEAR     37  28  70 W10       29.67F
MADISON        CLEAR     39  28  65 W18       29.69S
WILLMAR        FAIR      36  32  87 SW7       29.69F
$$
MNZ033>034-036-042>043-049>051-058-059-070700-
   Central Minnesota

CITY           SKY/WX    TMP DP  RH WIND       PRES   REMARKS
ST CLOUD       CLOUDY    33  29  85 SW12      29.67F WCI  24
6HR MIN TEMP:  33; 6HR MAX TEMP:  35; 6HR PCP:  0.02;

SAUK CENTRE    RAIN      34  32  92 W14       29.67S WCI  25
PAYNESVILLE    CLOUDY    35  31  85 SW10      29.68F WCI  27
AITKIN         PTCLDY    36  28  75 S8        29.58F
PINE RIVER     MOCLDY    36  32  87 S10       29.62F
BRAINERD       CLOUDY    33  30  88 SW14      29.61F WCI  23
STAPLES        MOCLDY    34  30  86 S9        29.59F WCI  26
LONG PRAIRIE   MIX PCPN  34  30  86 SW13G18   29.66S WCI  25
LITTLE FALLS   CLOUDY    34  30  86 SW7       29.66S WCI  28
LITCHFIELD     CLOUDY    34  30  86 CALM      29.69F
BUFFALO        CLOUDY    34  28  80 S9        29.71F WCI  26
MAPLE LAKE     CLOUDY    35  31  86 SW6G16    29.70F WCI  30
$$
MNZ037-044-045-052-053-070700-
   East Central Minnesota

CITY           SKY/WX    TMP DP  RH WIND       PRES   REMARKS
PRINCETON      CLOUDY    34  28  80 S8        29.68F WCI  27
MORA           CLOUDY    32  30  93 SW7       29.68F WCI  26
CAMBRIDGE      CLOUDY    36  27  69 S10       29.66F
RUSH CITY      MOCLDY    33  29  86 S12       29.67F WCI  24
MOOSE LAKE     LGT RAIN  32  30  93 SW9       29.62F WCI  24
HINCKLEY       DRIZZLE   34  32  93 S9        29.66F WCI  26
CLOQUET        CLOUDY    32  28  86 S14       29.61F WCI  22
MCGREGOR       CLOUDY    34  32  93 S9G16     29.60F WCI  26
$$
MNZ071>073-080-081-089-090-097-098-070700-
   Southwest Minnesota

CITY           SKY/WX    TMP DP  RH WIND       PRES   REMARKS
MONTEVIDEO     PTCLDY    36  32  87 W6        29.70F
GRANITE FALLS  PTCLDY    37  32  83 SW12      29.71F
CANBY          CLOUDY    42  32  68 SW21G26   29.72S
MARSHALL       PTCLDY    37  29  72 W25G31    29.72S
REDWOOD FALLS  MOCLDY    35  29  78 SW14      29.71F WCI  26
OLIVIA         MOCLDY    34  30  86 SW9       29.69F WCI  26
PIPESTONE        N/A     36  25  64 SW10      29.77F
WINDOM         PTCLDY    34  28  80 SW14      29.76R WCI  24
WORTHINGTON    CLOUDY    34  25  69 SW17      29.78F WCI  23
JACKSON        CLOUDY    32  28  86 SW18G25   29.76F WCI  20
TRACY          PTCLDY    35  30  81 SW17G25   29.73F WCI  25
SLAYTON        CLOUDY    32  30  92 SW20      29.76F WCI  20
$$
MNZ065>067-074>077-082>085-091>093-070700-
   South Central Minnesota

CITY           SKY/WX    TMP DP  RH WIND       PRES   REMARKS
MANKATO        CLOUDY    32  27  80 S14       29.73F WCI  22
NEW ULM        PTCLDY    34  28  80 SW12      29.74R WCI  25
ST JAMES       PTCLDY    34  30  86 SW12      29.76S WCI  25
FAIRMONT       CLOUDY    34  25  69 SW16      29.75F WCI  23
GLENCOE        CLOUDY    34  31  88 SW7       29.72S WCI  28
FARIBAULT      CLOUDY    34  28  80 S13G20    29.72F WCI  25
OWATONNA       CLOUDY    34  27  75 S16       29.75F WCI  23
WASECA         MOCLDY    32  28  86 S16       29.75F WCI  21
ALBERT LEA     PTCLDY    34  28  80 S12       29.77F WCI  25
$$
MNZ078>079-086>088-094>096-070700-
   Southeast Minnesota

CITY           SKY/WX    TMP DP  RH WIND       PRES   REMARKS
ROCHESTER      CLOUDY    32  28  85 S21       29.79F WCI  20
6HR MIN TEMP:  27; 6HR MAX TEMP:  32;

RED WING       CLOUDY    36  27  69 S9G18     29.75F
STANTON        CLOUDY    35  28  77 S12G18    29.71F WCI  26
DODGE CENTER   CLOUDY    30  28  93 S18       29.77F WCI  18
WINONA         CLOUDY    36  30  80 SW7       29.85F
AUSTIN         CLOUDY    32  30  93 S13       29.80F WCI  22
PRESTON        CLOUDY    31  28  88 SW14G20   29.84R WCI  21
$$
ABBREVIATIONS USED IN REMARKS
   TC - TEMPERATURES IN CELSIUS
  WCI - WIND CHILL INDEX
   HX - HEAT INDEX
  VSB - VISIBILITY
$$



USA.gov is the U.S. government's official web portal to all federal, state and local government web resources and services.